sat.trackr.live / text

‹ back to catalog

STARLINK-31432

NORAD 59932 · 2024-106L

PAYLOAD ACTIVE UNKNOWN

§ Identity

Operator
Country
US
Launch date
2024-06-01
Launch site
AFETR
Launch vehicle
Mass (kg)
RCS (m²)

Purposes: comms

External: N2YO · Heavens-Above · Gunter

§ Orbital elements

Epoch: 2026-09-21T19:09:07.088544Z

Period
94.27 min
Inclination
42.9999°
Eccentricity
0.0000865
Mean motion
15.27580041 rev/d
Perigee alt
482.5 km
Apogee alt
483.6 km
Semi-major
6,861.2 km
B*
2.5151e-4
RAAN
305.1243°
Arg perigee
245.6567°
Mean anomaly
114.4194°
Rev number
13,050

§ Raw data

STARLINK-314321 59932U 24106L   26264.79799871  .00006665  00000+0  25151-3 0  99972 59932  42.9999 305.1243 0000865 245.6567 114.4194 15.27580041130500

JSON: /api/v1/satellites/59932 · /tle

For live sub-satellite position, see the globe view (requires WebGL).

§ Visibility from observer

Set your observer location to see the next 7 days of passes ≥ 10°. The values pass through the URL so the page stays shareable.

No JS? Fill the form by hand. The geolocation button needs JavaScript.